Regional Weather Roundup
Issued by NWS Goodland, KS

Home | Current Version | Previous Version | Graphics & Text | Print | Product List | Glossary On
Versions: 1 2 3 4 5 6 7 8 9 10 11 12 13 14 15 16 17 18 19 20 21 22 23 24 25 26 27 28 29 30 31 32 33 34 35 36 37 38 39 40 41 42 43 44 45 46 47 48 49 50
000
ASUS43 KGLD 291708
RWRGLD

GOODLAND FORECAST AREA HOURLY WEATHER ROUNDUP
NATIONAL WEATHER SERVICE GOODLAND KS
1100 AM MDT WED JUL 29 2015

...OFFICIAL OBSERVATIONS...

CITY           SKY/WX    TMP DP  RH WIND       PRES   REMARKS
GOODLAND KS    PTSUNNY   72  48  42 E8        30.33R
HILL CITY KS   PTSUNNY   76  55  48 E12       30.23R
IMPERIAL NEB   PTSUNNY   75  49  39 SE12      30.30S
MCCOOK NEB     PTSUNNY   73  51  46 E10       30.26S
AKRON CO       SUNNY     76  44  32 SE18G24   30.34R
BURLINGTON CO  MOSUNNY   73  49  42 SE10G21   30.36R
LIMON CO       PTSUNNY   68  51  54 SE21G30   30.40R
$$

...UNOFFICIAL OBSERVATIONS...

CITY           SKY/WX    TMP DP  RH WIND       PRES   REMARKS
COLBY KS       SUNNY     75  55  50 E13       30.31R
NORTON KS      SUNNY     75  48  38 NE12      30.24R
SHARON SPRINGS   N/A     75  53  46 E6G14       N/A
KIT CARSON CO    N/A     71  49  46 MISG        N/A
YUMA CO          N/A     74  54  48 SE13        N/A
$$



USA.gov is the U.S. government's official web portal to all federal, state and local government web resources and services.